Regional Weather Roundup
Issued by NWS

Home | Current Version | Previous Version | Graphics & Text | Print | Product List | Glossary On
Versions: 1 2 3 4 5 6 7 8 9 10 11 12 13 14 15 16 17 18 19 20 21 22 23 24 25 26 27 28 29 30 31 32 33 34 35 36 37 38 39 40 41 42 43 44 45 46 47 48 49 50
000
ASUS43 KLOT 100508
RWRIL

ILLINOIS REGIONAL WEATHER ROUNDUP
NATIONAL WEATHER SERVICE CHICAGO/ROMEOVILLE IL
1100 PM CST TUE FEB 09 2016

NOTE: "FAIR" INDICATES FEW OR NO CLOUDS BELOW 12,000 FEET WITH NO
SIGNIFICANT WEATHER AND/OR OBSTRUCTIONS TO VISIBILITY.

* THESE STATIONS ARE NOT UNDER NWS QUALITY CONTROL. THEY ALSO MAY NOT
  REPORT WEATHER SUCH AS PRECIPITATION OR FOG.

ILZ001-002-007-009-015-016-024-100600-
NORTHWEST ILLINOIS

CITY           SKY/WX    TMP DP  RH WIND       PRES   REMARKS
MOLINE         CLEAR     12   2  64 NW13      30.08F WCI  -3
STERLING*      CLEAR     12   0  57 NW14      30.00S WCI  -3
SAVANNA*       CLEAR     12   1  62 NW12      30.04F WCI  -2
$$

ILZ003-004-008-010-011-017-018-100600-
NORTH CENTRAL ILLINOIS

CITY           SKY/WX    TMP DP  RH WIND       PRES   REMARKS
ROCKFORD       CLOUDY    13   1  59 N14G23    30.00F WCI  -2
FREEPORT*      CLEAR     10   1  65 NW13G18   30.01F WCI  -5
ROCHELLE*      MOCLDY    13   2  62 NW14      29.99F WCI  -2
DE KALB*       PTCLDY    12   4  70 NW9       29.97S WCI  -1
$$

ILZ005-006-012>014-019>023-100600-
NORTHEAST ILLINOIS

CITY           SKY/WX    TMP DP  RH WIND       PRES   REMARKS
CHICAGO-OHARE  CLOUDY    14   6  70 NW13      29.94S WCI   0
CHICAGO-MIDWAY FLURRIES  15   5  64 NW14      29.95S WCI   0
AURORA         CLOUDY    15   6  67 NW15      29.97S WCI   0
LANSING*       CLOUDY    15   8  73 NW10      29.95S WCI   2
JOLIET*        CLOUDY    16   7  69 NW10G17   29.98S WCI   3
WAUKEGAN       CLOUDY    14   7  73 NW10G18   29.92S WCI   1
DUPAGE AIRPORT CLOUDY    14   4  64 NW15      29.95S WCI  -1
KANKAKEE*      CLOUDY    15   8  73 NW13      29.98S WCI   1
WHEELING       CLOUDY    14   6  70 NW15      29.95S WCI  -1
MORRIS*        CLOUDY    15   6  65 NW13G18   29.95S WCI   2
ROMEOVILLE*    CLOUDY    14   6  70 NW13G20   29.96F WCI   0
NORTHERLY ISL    N/A     16  10  77 W14         N/A  WCI   2
$$

LMZ740>746-100600-
SOUTHERN LAKE MICHIGAN

STATION/POSITION SKY/WX   TEMP    WIND        PRES    VSBY  WAVE
                          AIR SEA DIR/SP/G                  HT/PER
                          (F)     (DEG/KT/KT) (MB)    (MI)  (FT/S)
HARRISON CRIB              17     300/ 21/ 24   N/A
BURNHAM HARBOR             16     290/ 14/ 17   N/A
CALUMET HARBOR             15     270/  9/ 16 1013.3S
BURNS HARBOR               19     300/ 20/ 23 1013.2F
MICHIGAN CITY              19     270/ 28/ 31   N/A
$$

ILZ025>027-034>036-040-047-049-050-058-095>099-100600-
WEST-CENTRAL ILLINOIS

CITY           SKY/WX    TMP DP  RH WIND       PRES   REMARKS
QUINCY         MOCLDY    14   5  67 NW16G23   30.13F WCI  -2
GALESBURG*     CLEAR     10   5  79 W10       30.08S WCI  -3
MACOMB*        CLEAR     12   7  77 NW16      30.12F WCI  -4
JACKSONVILLE*  PTCLDY    15   7  70 NW16      30.11F WCI   0
PITTSFIELD*    MOCLDY    16   7  67 NW16G24   30.14S WCI   0
$$

ILZ028>032-037-038-041>044-048-051>054-059>061-100600-
CENTRAL ILLINOIS

CITY           SKY/WX    TMP DP  RH WIND       PRES   REMARKS
PONTIAC        CLOUDY    15   8  72 NW17      30.02R WCI  -1
BLOOMINGTON    CLOUDY    14   5  67 NW18      30.02S WCI  -3
DECATUR        CLOUDY    14   6  70 NW15G23   30.05R WCI  -1
PEORIA         CLEAR     12   3  67 NW9       30.06F WCI   0
LACON*         CLEAR     12   4  71 NW9G18    30.04F WCI  -1
LINCOLN*       CLOUDY    14   8  75 NW7G17    30.07S WCI   4
SPRINGFIELD    MOCLDY    15   5  64 NW15G23   30.09S WCI   0
TAYLORVILLE    CLOUDY    14   7  73 NW20G29   30.09R WCI  -3
$$

ILZ033-039-045-046-055>057-062-063-100600-
EAST-CENTRAL ILLINOIS

CITY           SKY/WX    TMP DP  RH WIND       PRES   REMARKS
CHAMPAIGN      FLURRIES  15  10  80 NW15      30.01R WCI   0
RANTOUL*       CLOUDY    16  11  80 NW16      30.00R WCI   1
MATTOON        CLOUDY    14   7  73 NW23G30   30.02R BLWGSNOWWCI  -5
PARIS*         LGT SNOW  16  12  85 NW15      30.01S WCI   1
$$

ILZ079-100>102-100600-
SOUTHWEST ILLINOIS

CITY           SKY/WX    TMP DP  RH WIND       PRES   REMARKS
ALTON          MOCLDY    18   8  64 NW10G20   30.12S WCI   6
BELLEVILLE     MOCLDY    20  11  67 NW13G21   30.11R WCI   7
CAHOKIA*       MOCLDY    22   7  52 NW16G31   30.13S WCI   8
SPARTA*        CLOUDY    22  11  64 NW14G20   30.11S WCI   9
$$

ILZ064>066-069>071-074>076-080>082-084>086-088>090-092>094-100600-
SOUTH-CENTRAL ILLINOIS

CITY           SKY/WX    TMP DP  RH WIND       PRES   REMARKS
CARBONDALE     LGT SNOW  22  15  75 N12       30.11R WCI  10
EFFINGHAM*     CLOUDY    17   9  72 NW21G28   30.08R WCI   0
MARION         CLOUDY    21  16  79 CALM      30.11R
MT. VERNON     CLEAR     18   5  57 NW3       30.09S
CENTRALIA*     CLEAR     19   8  61 NW15G22   30.09R WCI   5
SALEM*         CLEAR     19   7  59 NW14      30.09R WCI   5
METROPOLIS*    CLOUDY    25  16  68 W8        30.12S WCI  16
$$

ILZ067-068-072-073-078-083-087-091-100600-
SOUTHEAST ILLINOIS

CITY           SKY/WX    TMP DP  RH WIND       PRES   REMARKS
LAWRENCEVILLE  CLOUDY    18   9  68 NW18      30.05F WCI   2
FLORA*         MOCLDY    19  10  66 NW15G24   30.08S WCI   5
FAIRFIELD*     PTCLDY    18  10  70 W8        30.08S WCI   7
HARRISBURG*    MOCLDY    17  14  88 NW5       30.11S WCI  10
ROBINSON*      CLOUDY    17  10  74 NW10      30.06S WCI   4
CARMI*         CLEAR     17  10  75 W7        30.09S WCI   7
$$

ABBREVIATIONS USED IN REMARKS
   TC - TEMPERATURE IN CELSIUS
  WCI - WIND CHILL INDEX
   HX - HEAT INDEX
  VSB - VISIBILITY
$$





USA.gov is the U.S. government's official web portal to all federal, state and local government web resources and services.